Regional Weather Roundup
Issued by NWS Portland, ME

Home | Current Version | Previous Version | Text Only | Print | Product List | Glossary On
Versions: 1 2 3 4 5 6 7 8 9 10 11 12 13 14 15 16 17 18 19 20 21 22 23 24 25 26 27 28 29 30 31 32 33 34 35 36 37 38 39 40 41 42 43 44 45 46 47 48 49 50
000
ASUS41 KGYX 200510
RWRGYX
WEATHER ROUNDUP FOR MAINE AND NEW HAMPSHIRE
NATIONAL WEATHER SERVICE GRAY ME
1200 AM EST FRI JAN 20 2017

MEZ002-005-006-010-012-015-018-020-021-024-026-027-029-200600-
MAINE

CITY           SKY/WX    TMP DP  RH WIND       PRES   REMARKS
PORTLAND       PTCLDY    33  29  85 W6        30.04R
SANFORD        CLOUDY    34  30  85 NE6       30.01F
BAR HARBOR     CLOUDY    32  29  88 NW3       29.98S
WISCASSET      CLOUDY    33  31  92 CALM      30.03R
ROCKLAND       PTCLDY    33  28  81 W7        30.00R
FRYEBURG       CLOUDY    30  28  92 E3        30.02F
LEWISTONAUBURN CLOUDY    35  28  75 NW6       30.02S
AUGUSTA        CLEAR     32  26  78 W3        30.02R
WATERVILLE     CLEAR     31  26  82 NW9       29.99R
BANGOR         CLOUDY    32  27  81 NW6       29.99R
GREENVILLE     NOT AVBL
MILLINOCKET    CLOUDY    32  27  81 NW8       29.98R
HOULTON        CLOUDY    30  28  92 CALM      29.92S
PRESQUE ISLE   FLURRIES  30  27  88 W9        29.93S
FRENCHVILLE    CLOUDY    29  24  82 NW7       29.91R
CARIBOU        CLOUDY    30  26  85 W7        29.91R
$$

NHZ002-005-008-009-011-012-014-200600-
NEW HAMPSHIRE

CITY           SKY/WX    TMP DP  RH WIND       PRES   REMARKS
PORTSMOUTH     CLOUDY    35  29  78 N3        29.99F
ROCHESTER      CLOUDY    34  26  72 N3        30.00F
NASHUA         CLOUDY    34  29  82 N3        30.00F
MANCHESTER     CLOUDY    30  26  85 CALM      29.99F
CONCORD        PTCLDY    26  24  92 CALM      30.00F FOG
LACONIA        FOG       21  21 100 CALM      29.99F VSB 3/4
PLYMOUTH       CLOUDY    35  29  79 W3        30.00F
BERLIN         CLOUDY    33  26  75 CALM      30.00F
WHITEFIELD     CLOUDY    32  27  81 E5        30.00F
JAFFREY        CLEAR     31  29  92 CALM      29.97F
KEENE          CLOUDY    30  30 100 CALM      30.00S FOG
LEBANON        CLOUDY    35  30  82 N8        29.99F
MT WASHINGTON  MOCLDY    25  12  58 NW25        N/A  WCI   9
$$

VTZ005-007-008-200600-
VERMONT

CITY           SKY/WX    TMP DP  RH WIND       PRES   REMARKS
ST JOHNSBURY     N/A     33  32  96 MISG      30.00F
MONTPELIER     CLOUDY    31  29  92 CALM      30.03F
BURLINGTON     CLOUDY    35  30  82 NE5       30.01F
$$

MAZ007-012-024-CTZ003-RIZ002-NYZ038-NYZ072-200600-
SOUTHERN NEW ENGLAND AND NY

CITY           SKY/WX    TMP DP  RH WIND       PRES   REMARKS
BOSTON         PTCLDY    37  29  72 N8        30.00F
WORCESTER      CLOUDY    34  28  79 N6        29.96F
NANTUCKET      CLOUDY    40  34  79 N12       29.98F
PROVIDENCE     CLOUDY    41  31  67 NE9       30.00F
HARTFORD       CLOUDY    39  31  72 CALM      30.02R
ALBANY         CLOUDY    35  32  88 CALM      30.03S
NEW YORK CITY  CLOUDY    43  34  70 E8        30.02S
$$

ANZ081-ANZ082-ANZ150-NHZ014-MEZ023>029-200600-
COASTAL MARINE OBSERVATIONS

STATION/POSITION TIME  TEMP    WIND        PRES    WAVE
                       AIR SEA DIR/SP/G            HT/PER
                 (UTC) (F)     (DEG/KT/KT) (MB)    (FT/S)
MOUNT DESERT ROC 0500   37                 1014.9S
MATINICUS ROCK   0400   38     310/ 13/ 14 1014.9R
ISLE OF SHOALS   0400   38     330/ 12/ 13 1016.5R
CASHES LEDGE BUO 0350   42 46  330/ 16/ 19 1015.5    7/11
GEORGES BANK BUO 0450   42 44              1013.2F   8/11
$$

.............KEY..............
   WCI - WIND CHILL
   TC  - TEMPERATURE IN CELSIUS
   VSB - VISIBILITY IN MILES
   HX  - HEAT INDEX
   FAIR- INDICATES FEW OR NO CLOUDS BELOW 12,000 FT, WITH NO
         SIGNIFICANT WEATHER AND/OR OBSTRUCTIONS TO VISIBILITY.






USA.gov is the U.S. government's official web portal to all federal, state and local government web resources and services.